GFSMA_500_spd_057.txt.gz
Wind_Speed
9 7 7 8 8 8 9 11 9 7 7 7 8 7 8 9 9 9 10 11 11 12 12 13 13 14 14 13 14 14 14 14 13 13 12 14 15 17 18 11 9 7 4
10 8 8 8 8 8 8 6 7 7 6 7 9 8 8 8 9 10 13 12 11 12 12 13 13 14 13 12 12 12 12 10 11 11 11 12 12 15 17 14 9 5 4
12 10 9 9 7 7 8 10 10 9 10 10 9 10 10 9 9 10 13 13 10 11 12 12 11 11 13 12 12 12 12 13 13 12 12 12 13 12 11 11 11 9 7
8 8 9 9 9 10 13 13 14 11 10 10 8 8 10 11 11 11 12 11 10 11 11 11 11 10 12 11 13 13 14 14 14 14 12 11 11 11 11 11 10 8 8
10 8 9 11 10 10 13 14 14 13 10 9 7 7 10 12 12 12 12 12 11 13 14 13 15 15 15 15 17 16 16 17 16 15 15 15 14 14 13 12 10 10 10
10 10 11 12 12 13 13 16 16 16 13 12 11 12 12 12 12 14 12 13 13 11 14 13 16 19 18 17 16 17 18 17 18 17 17 18 18 17 15 12 11 10 11
11 12 13 13 12 14 15 16 17 17 16 15 14 13 13 13 12 11 11 11 13 13 17 18 19 20 19 19 18 17 17 16 16 15 14 14 15 15 14 14 11 10 9
11 12 14 15 13 13 14 15 16 17 15 14 14 13 12 11 11 12 10 10 16 19 20 21 20 19 17 16 14 11 8 7 6 8 9 8 8 9 8 7 6 6 5
11 13 14 15 15 13 12 12 14 15 15 11 11 11 10 11 11 12 14 16 20 20 19 17 15 12 11 11 10 9 9 9 9 9 8 9 10 11 13 12 11 11 10
11 12 12 13 13 12 10 9 11 13 13 12 10 10 10 12 13 14 19 19 18 17 15 13 10 8 8 8 7 9 10 10 12 13 12 14 15 16 19 15 14 14 13
11 11 11 12 11 10 9 7 8 11 12 13 11 10 9 10 12 12 15 14 13 12 10 8 7 8 8 9 10 10 10 10 12 15 15 14 14 16 18 19 20 15 15
12 11 10 10 10 9 7 6 5 7 9 9 11 10 11 11 11 12 12 10 8 7 6 5 6 7 8 8 9 9 8 9 9 12 11 12 16 19 19 19 19 20 19
13 12 11 9 8 8 8 7 7 5 6 6 7 11 11 12 12 13 12 10 8 5 4 5 5 6 7 8 9 10 9 7 6 10 12 15 20 21 21 22 24 25 20
14 13 11 9 7 6 5 5 7 6 5 5 6 9 13 13 13 12 12 10 9 8 6 5 7 8 10 11 12 13 13 11 9 11 14 18 21 23 24 25 24 23 26
16 13 12 9 7 5 3 2 3 4 3 4 5 7 10 11 12 12 12 11 10 10 9 9 8 7 9 11 12 12 10 7 7 11 16 20 22 24 25 25 28 27 26
16 14 12 9 7 6 3 2 2 1 1 2 2 4 8 9 11 13 13 11 11 9 7 5 5 8 10 11 14 14 15 15 17 19 20 22 25 26 27 28 30 33 35
17 14 12 10 10 9 7 6 6 6 3 3 2 3 6 7 8 10 12 10 8 6 4 3 4 6 8 11 14 17 19 22 20 19 24 24 28 29 31 32 33 34 39
19 17 15 14 13 12 11 10 9 8 7 6 4 1 6 7 6 7 8 8 6 4 1 3 6 8 11 13 17 19 20 18 27 27 28 30 32 35 38 43 45 45 45
22 20 17 16 16 15 13 11 11 10 9 9 6 5 6 7 9 7 5 4 2 3 4 6 8 9 12 15 18 22 27 24 28 30 33 38 41 41 41 45 49 50 44
25 20 18 19 17 16 16 13 13 11 11 11 9 8 8 9 9 7 4 1 1 2 5 7 10 13 15 19 21 25 24 28 29 34 37 41 43 46 53 50 54 56 51
22 21 20 17 15 14 14 13 11 10 11 11 13 13 13 12 9 6 4 1 1 3 6 8 10 11 15 20 25 28 26 27 31 37 40 43 47 48 50 54 56 58 57
22 20 18 15 15 16 15 13 9 10 10 10 13 13 13 11 9 7 6 4 6 9 11 12 15 15 16 21 24 27 30 31 33 39 40 38 45 46 51 54 56 55 55
25 21 18 16 17 16 13 12 10 10 12 13 11 10 9 7 6 6 7 8 10 12 12 13 14 17 18 24 27 30 34 37 38 40 46 44 46 47 51 54 54 52 51
25 22 18 16 14 14 14 12 11 13 16 14 11 9 8 8 9 10 10 10 11 13 15 17 17 19 22 25 29 32 34 36 35 40 46 45 49 51 49 46 47 49 53
26 23 21 17 17 15 14 13 13 16 16 14 12 11 10 10 13 15 13 13 11 15 20 21 22 24 27 30 34 36 40 41 44 41 46 47 45 44 39 45 48 52 54
29 25 20 20 19 17 15 14 14 19 16 13 13 13 13 13 17 18 18 18 15 18 22 23 24 27 30 33 37 41 43 44 49 47 46 50 46 50 46 47 51 53 52

GFSMA_500_spd_060.txt.gz
Wind_Speed
10 8 7 7 9 7 8 7 6 6 7 8 9 10 9 10 11 10 12 13 12 12 11 12 11 13 12 13 12 12 12 11 10 9 10 13 16 19 18 12 4 3 5
9 8 8 8 6 6 4 4 5 7 9 8 9 11 10 10 12 11 12 13 12 11 11 11 11 11 11 12 11 11 10 12 12 12 12 13 14 15 17 12 9 7 7
11 9 8 7 7 7 5 8 8 9 11 10 11 12 12 11 12 12 12 12 10 10 10 10 9 9 11 12 12 13 13 14 14 15 14 13 13 13 12 11 10 10 11
9 9 10 11 11 9 8 9 10 10 10 10 11 13 14 12 11 11 12 11 9 9 10 10 11 10 12 13 13 16 17 17 17 16 16 15 14 13 14 12 11 12 13
10 13 13 12 12 11 13 12 11 9 9 9 10 13 14 14 12 10 12 13 12 12 13 13 14 16 18 19 18 18 18 18 18 17 17 18 18 20 17 15 15 13 12
12 14 13 12 14 13 14 15 14 12 12 11 12 13 13 14 15 12 11 12 12 13 13 16 17 18 19 19 18 17 18 18 18 18 19 20 20 19 17 15 14 14 14
14 16 15 13 14 15 15 16 17 16 15 14 12 10 11 12 13 14 11 13 14 15 16 18 19 20 18 17 16 16 17 16 15 15 15 16 17 16 16 16 14 14 13
15 15 15 14 14 14 13 16 16 14 14 14 13 10 10 9 8 11 14 17 18 19 19 19 18 17 17 15 14 12 11 10 11 11 10 10 9 10 12 13 11 10 12
16 17 16 15 13 13 13 14 14 13 12 10 9 9 8 9 9 12 16 19 18 17 17 16 15 12 11 8 7 6 7 8 7 6 8 7 10 13 13 12 12 13 13
15 17 16 14 13 11 11 11 12 12 12 10 9 7 7 7 11 15 16 16 14 13 11 11 9 6 5 4 6 7 6 8 9 9 9 9 12 15 17 16 18 18 17
14 14 15 14 12 11 10 9 9 11 11 11 11 11 10 8 9 12 12 12 10 8 7 5 5 5 5 4 6 7 8 8 11 10 11 16 17 18 18 20 20 21 21
15 14 13 12 11 9 8 8 7 8 9 10 11 11 12 11 9 7 7 7 5 4 2 4 5 5 4 4 6 6 6 4 6 8 12 14 16 17 18 18 18 20 23
14 14 12 12 12 10 9 8 7 6 6 8 10 11 12 11 10 9 8 7 5 4 2 4 5 6 7 9 10 9 7 4 5 9 12 14 17 17 17 19 20 19 22
14 14 13 11 10 9 8 7 7 6 6 7 9 10 12 13 13 12 11 9 7 6 5 5 8 9 9 9 8 8 8 7 9 12 15 16 18 21 22 25 26 28 31
15 14 13 11 9 8 7 6 5 5 5 6 8 9 11 13 13 12 11 10 9 7 7 8 8 7 8 8 9 8 8 9 10 12 15 17 21 22 25 28 32 36 40
17 15 14 12 10 8 7 4 2 2 2 3 6 9 12 13 13 13 11 10 10 9 8 6 5 5 6 8 12 13 15 13 17 17 18 20 24 30 31 33 36 38 37
20 18 16 14 13 11 9 7 6 3 3 2 4 9 12 13 14 13 13 13 11 9 6 3 3 5 7 9 12 14 16 15 19 22 22 24 28 32 35 38 42 45 40
22 20 18 17 16 14 13 11 10 7 6 6 4 7 12 13 14 14 12 11 9 6 4 2 2 3 6 9 12 15 17 19 20 22 24 31 35 37 38 41 43 46 47
23 22 20 20 19 17 16 14 13 11 10 9 8 8 11 14 15 14 12 8 7 4 2 1 1 3 8 11 14 17 20 21 23 26 30 34 38 41 43 44 46 47 50
26 25 24 23 20 19 17 16 16 14 13 12 10 10 12 16 16 13 11 9 7 4 1 2 6 8 13 17 18 18 20 23 25 28 33 37 38 39 43 48 50 51 49
28 27 26 23 20 19 18 17 17 15 14 13 11 11 14 17 15 13 10 8 7 3 3 6 9 11 13 14 15 17 20 24 30 33 33 37 40 41 44 42 46 51 50
30 29 26 24 22 19 20 17 14 13 13 13 14 14 16 15 13 10 7 5 3 3 5 7 8 9 10 14 17 20 22 23 22 31 32 34 42 42 46 47 49 48 49
31 29 26 25 21 21 18 14 13 13 13 13 13 14 14 12 11 8 5 4 5 7 7 8 8 11 13 17 18 20 23 25 28 32 37 35 39 39 41 46 47 49 51
30 28 26 25 22 20 16 15 13 12 12 15 16 15 14 12 10 6 4 6 7 8 10 11 9 10 13 17 20 22 25 26 28 33 39 42 43 41 42 43 47 51 54
30 28 27 25 20 18 17 15 13 12 14 18 17 15 14 12 10 8 8 8 8 10 14 13 14 15 18 22 26 27 30 30 30 33 40 45 45 44 44 45 46 49 53
33 31 27 23 22 20 16 14 13 14 17 20 19 17 15 12 12 13 10 10 9 14 17 18 20 21 23 27 32 34 33 33 34 33 41 46 50 51 48 47 47 49 50

GFSMA_500_spd_063.txt.gz
Wind_Speed
9 7 6 6 8 6 6 5 7 7 9 8 10 9 10 10 10 11 11 13 13 13 13 13 13 14 15 16 16 14 12 12 13 15 16 19 22 24 19 13 12 14 15
7 7 7 6 9 1 3 4 6 7 8 10 11 12 11 12 11 12 12 12 12 11 12 12 12 12 14 14 13 14 13 14 14 16 17 20 21 21 19 18 19 19 19
8 7 6 6 6 6 6 7 8 9 9 10 12 13 12 10 11 11 11 12 11 10 11 11 13 13 13 13 13 14 15 17 18 20 20 21 20 19 18 17 16 16 15
6 6 9 11 10 10 7 8 9 8 9 10 11 12 11 10 10 11 10 11 11 11 12 13 14 14 15 17 18 20 20 21 23 22 20 19 17 17 15 14 12 13 13
7 9 11 11 13 10 8 7 6 8 7 11 11 11 11 11 11 10 11 13 14 15 13 15 16 16 20 21 19 20 21 20 19 19 19 20 20 19 18 17 16 17 18
10 11 13 14 14 13 11 9 8 8 9 11 10 12 10 8 11 11 12 11 12 15 17 18 18 19 19 18 18 19 19 19 18 19 19 19 20 21 20 19 17 18 18
10 13 14 16 15 15 16 13 10 10 10 11 10 10 11 9 9 10 11 12 14 15 18 19 19 18 17 18 19 18 16 16 16 18 19 18 20 19 18 18 18 18 18
10 11 14 15 15 15 15 14 12 12 11 11 10 8 9 9 8 11 12 14 15 17 17 16 16 16 16 16 16 15 15 16 16 16 16 16 17 19 18 17 18 18 18
11 12 13 12 14 13 13 12 11 11 9 9 8 8 8 6 10 13 16 15 15 14 13 13 14 14 13 14 14 13 13 12 11 12 13 15 17 21 21 22 23 25 25
14 13 12 12 12 12 12 11 11 11 10 8 6 5 7 7 9 13 15 14 13 12 12 12 11 10 10 10 12 12 10 11 12 14 17 18 20 20 21 20 21 23 26
15 14 12 10 9 9 9 10 9 9 9 9 7 4 4 7 9 11 9 11 10 10 10 10 9 8 7 7 8 8 7 8 12 14 16 16 18 18 19 21 22 22 24
13 12 11 8 7 6 6 6 7 7 7 9 8 6 5 4 7 7 7 7 6 7 6 6 6 6 5 5 6 6 6 6 10 13 15 16 18 20 21 23 25 27 28
14 12 10 9 7 6 4 4 5 6 7 8 9 9 8 7 6 4 3 1 2 3 4 4 5 8 8 9 9 9 8 8 9 12 15 17 19 21 24 28 33 34 35
15 14 13 11 8 7 5 3 4 5 7 9 10 9 9 9 8 6 5 3 2 2 4 5 6 6 6 7 8 8 8 9 11 12 15 16 21 30 28 28 31 38 39
17 16 14 11 9 7 6 4 4 3 6 7 9 9 9 8 8 7 7 6 7 5 6 6 4 5 7 8 8 8 10 7 14 15 14 19 23 27 29 31 33 37 41
20 18 16 13 10 7 6 4 2 1 2 5 8 10 11 10 10 9 9 9 9 7 6 5 4 3 5 6 8 10 13 12 17 17 18 20 23 27 32 34 36 39 40
22 21 18 15 12 10 9 7 6 4 3 2 5 10 12 13 12 11 11 11 11 10 7 5 2 2 4 7 10 12 14 15 14 15 19 27 32 33 35 37 38 38 39
24 23 20 17 15 14 13 11 10 9 7 6 4 9 14 15 15 14 13 12 11 9 6 5 2 1 5 7 9 10 11 13 16 20 22 29 34 38 42 43 44 46 47
25 24 21 19 18 17 15 14 13 13 12 11 8 8 13 17 18 16 14 12 10 9 7 5 2 3 6 7 8 8 11 15 19 22 25 26 30 35 38 43 45 47 48
26 25 24 22 20 18 16 17 17 17 16 14 12 9 12 18 18 16 15 13 12 9 6 3 1 3 4 3 6 11 14 17 20 23 26 28 27 29 32 36 41 45 49
27 27 25 22 20 18 17 19 19 19 17 15 13 11 12 16 19 17 15 13 10 8 4 2 4 6 6 8 9 12 13 16 20 23 24 29 31 35 39 38 39 43 48
28 28 27 25 22 19 19 20 18 17 15 15 13 14 14 14 16 16 13 12 10 6 3 4 6 7 9 10 11 14 16 17 19 26 27 27 33 35 39 41 42 45 47
30 28 28 27 23 20 20 20 17 15 15 14 13 13 14 18 17 14 12 10 8 6 7 7 6 10 11 13 14 16 20 21 22 24 27 28 33 35 39 41 44 48 50
32 30 29 28 24 21 20 19 17 15 14 13 13 14 17 17 17 15 12 10 9 8 9 9 7 9 13 15 18 20 21 22 23 27 30 29 32 36 40 42 45 49 49
33 29 29 27 24 22 21 20 17 14 14 15 14 16 17 18 17 15 12 10 9 10 12 11 10 13 16 19 23 25 27 25 25 30 33 33 35 36 40 44 44 46 45
35 32 29 27 25 24 22 20 17 14 14 14 16 17 17 17 16 15 13 12 11 12 14 15 17 19 22 23 26 29 31 30 29 27 33 34 35 40 37 39 45 48 42

GFSMA_500_spd_069.txt.gz
Wind_Speed
5 6 7 3 10 10 10 9 12 12 13 15 17 13 16 16 18 18 19 18 19 19 19 18 18 19 20 20 20 20 21 23 23 23 25 25 25 24 23 23 23 22 21
5 7 4 8 6 10 7 9 10 9 12 13 16 14 15 15 17 16 17 17 18 19 19 19 19 20 20 21 23 25 27 26 27 27 26 26 25 23 23 22 22 21 22
6 3 6 9 9 10 11 11 9 10 10 10 15 16 14 13 14 14 15 17 18 19 21 21 21 23 24 24 25 27 27 28 28 28 27 27 26 25 23 22 22 24 26
6 7 9 8 8 8 10 11 12 9 11 11 12 11 15 13 13 12 15 18 21 20 21 22 23 23 24 24 25 26 26 27 26 27 28 28 27 27 26 25 26 26 25
9 7 9 7 7 7 8 9 10 10 9 9 10 9 12 12 13 16 18 18 20 22 22 23 23 23 25 24 24 26 26 27 29 30 30 27 28 28 28 28 27 25 24
9 10 8 10 8 9 10 10 10 10 9 12 11 10 12 14 15 17 18 20 22 21 20 22 23 24 25 24 25 25 28 29 29 29 29 29 27 27 28 28 27 27 28
6 12 10 11 8 12 12 10 11 11 11 10 12 10 11 14 15 16 18 21 19 21 19 21 22 24 24 24 24 27 27 27 27 29 29 27 27 27 27 27 26 25 27
13 13 9 11 10 13 12 11 13 12 11 13 11 12 13 12 16 17 19 20 17 19 19 21 21 22 23 24 23 25 25 24 26 26 26 25 25 24 24 26 24 25 23
10 11 11 11 10 12 11 10 10 12 12 11 12 11 13 14 16 17 17 19 16 18 18 18 18 18 18 20 21 20 22 23 24 24 24 27 28 24 23 27 28 28 28
11 10 9 8 9 9 9 9 8 8 10 11 12 12 15 14 17 15 17 17 13 16 15 16 17 14 16 16 17 16 18 22 22 21 21 23 25 27 28 29 29 29 29
13 10 8 7 7 8 7 7 7 7 7 9 12 10 14 15 15 14 15 14 13 14 14 18 17 17 17 15 15 15 18 19 19 18 18 23 25 27 28 28 29 29 30
12 11 8 5 6 4 4 5 6 5 5 5 8 9 12 13 13 13 12 11 13 14 14 16 18 19 20 19 16 16 16 15 15 16 19 21 23 25 27 28 31 33 36
13 11 9 5 2 2 3 4 2 3 3 2 3 6 7 11 10 7 10 11 11 12 11 13 13 15 16 15 12 11 13 14 14 13 16 19 21 23 25 29 31 33 34
11 10 7 6 4 3 0 2 3 3 2 1 2 2 4 4 8 5 7 7 10 10 10 9 10 11 11 10 12 10 9 10 12 13 14 19 21 25 28 30 31 34 37
13 11 9 7 5 4 1 2 3 2 3 1 2 2 2 4 4 5 5 5 6 5 8 7 8 8 7 8 6 7 9 11 11 14 16 18 22 26 30 34 34 37 38
16 14 11 9 8 6 4 3 3 1 1 1 2 3 4 4 5 6 6 2 4 5 5 5 5 5 5 4 4 6 8 9 10 9 13 18 23 27 31 34 35 37 39
19 18 15 13 11 9 7 6 5 2 1 1 2 5 7 6 6 7 8 7 6 5 3 4 3 3 2 2 3 6 7 7 10 12 17 21 21 23 25 28 31 34 37
22 21 17 15 14 11 9 9 8 5 3 3 4 5 9 9 9 9 10 8 7 5 3 4 3 2 1 2 3 5 6 9 12 16 17 17 19 22 25 28 32 36 38
21 21 20 19 16 14 12 11 11 8 6 6 6 6 6 11 13 12 11 10 9 7 6 5 4 4 2 1 3 4 6 9 13 15 17 19 23 24 26 30 33 35 38
21 22 22 21 19 16 14 13 13 11 9 10 9 9 8 9 14 15 14 12 11 10 9 9 8 5 4 2 4 5 9 10 13 16 19 24 27 30 30 30 31 34 37
23 23 22 22 20 18 16 16 15 13 12 12 12 12 12 10 12 16 16 15 14 13 12 11 9 8 7 6 5 7 8 11 16 20 21 25 26 28 29 28 30 33 35
26 25 21 22 21 19 19 18 17 15 14 13 13 13 13 13 13 16 19 18 17 16 15 13 11 11 9 8 7 8 9 11 13 20 19 23 25 28 28 29 29 31 33
29 25 23 22 21 22 20 19 19 17 15 14 15 15 15 16 16 17 21 21 19 18 17 16 14 13 10 9 10 12 13 16 19 22 17 22 24 26 29 28 28 31 33
29 29 27 25 24 23 22 21 20 18 15 15 16 16 17 18 19 19 22 23 23 20 20 19 16 14 12 14 15 16 18 19 22 24 22 21 23 24 27 28 28 30 33
29 28 28 27 25 24 24 24 22 19 16 17 19 19 17 18 21 23 24 25 25 24 24 21 16 14 14 17 19 20 23 22 21 22 22 22 23 25 27 29 29 30 32
30 32 30 28 27 27 27 25 23 21 16 19 22 20 21 20 22 23 26 27 25 26 23 19 18 17 18 19 22 24 26 27 25 23 23 22 24 23 26 28 29 29 32

GFSMA_500_spd_072.txt.gz
Wind_Speed
6 7 10 7 8 12 12 12 15 15 14 16 16 16 19 18 20 20 20 20 21 19 19 20 19 19 21 24 24 26 26 27 27 27 26 25 24 22 22 21 22 23 24
6 8 8 10 10 12 13 12 15 16 13 18 14 16 16 17 19 20 20 20 21 20 20 22 24 25 27 26 28 27 28 29 28 27 26 25 24 23 22 22 24 25 25
6 9 10 11 13 12 11 11 15 14 14 15 15 15 15 16 17 18 17 19 21 21 22 23 24 26 26 25 26 28 27 28 28 29 29 28 28 27 25 24 24 24 24
6 7 9 10 13 11 10 10 12 14 14 12 15 16 16 16 15 19 19 21 21 22 24 23 23 24 23 25 27 29 31 30 30 30 29 28 27 26 24 24 25 23 24
7 7 9 9 9 10 9 11 12 13 13 15 16 17 16 19 18 20 21 21 23 22 22 22 23 23 24 26 29 29 29 27 27 26 26 27 26 24 25 25 25 27 26
8 12 11 10 12 11 9 12 15 14 13 16 16 17 15 17 19 19 21 21 21 21 22 22 24 24 26 29 28 27 26 26 28 27 27 26 26 27 26 26 25 22 24
10 13 12 14 15 14 15 13 15 15 13 13 16 16 15 15 16 19 21 20 19 21 20 21 24 26 28 27 25 25 26 26 26 28 25 25 23 23 24 24 24 24 25
11 14 13 13 16 13 14 15 16 15 13 14 14 16 12 14 16 17 17 17 18 21 20 21 22 25 26 25 24 22 23 22 25 25 26 23 24 25 25 25 25 24 27
11 13 13 13 11 13 13 14 14 15 16 14 14 12 15 15 17 15 14 15 15 17 19 20 20 21 21 21 21 21 19 18 21 22 23 24 25 25 26 27 28 29 31
9 10 11 12 11 12 12 13 12 13 15 15 14 13 15 16 15 14 11 13 13 16 18 17 19 17 17 17 17 17 17 17 18 20 20 22 23 24 25 27 29 32 34
8 9 9 9 9 9 11 10 10 11 12 15 15 15 15 16 15 12 10 12 12 17 19 17 18 18 18 17 15 15 15 15 16 16 18 20 21 23 25 29 33 34 35
9 8 8 7 7 8 8 8 7 8 9 11 15 18 15 14 14 12 12 13 13 16 18 20 20 20 17 15 14 14 13 12 13 14 16 18 20 24 28 31 31 34 35
12 8 6 5 4 5 5 5 4 5 7 8 10 11 13 15 11 10 12 15 14 13 14 14 14 15 13 12 12 12 10 9 10 13 15 18 22 25 26 31 33 34 34
14 10 6 3 2 2 4 5 6 5 4 4 7 9 8 9 10 10 10 9 11 11 11 12 10 10 9 10 7 7 8 9 10 12 16 20 24 29 31 31 33 34 35
15 13 9 6 2 1 3 3 3 4 4 4 4 6 7 8 7 9 8 8 7 7 7 6 6 5 6 6 6 6 7 9 11 14 17 21 26 28 31 32 31 32 33
14 14 10 8 5 2 1 1 2 2 2 2 4 4 5 6 7 9 8 7 5 4 6 4 3 1 1 3 4 5 7 8 11 13 17 21 24 26 28 29 31 33 35
17 16 13 11 8 6 5 3 3 2 1 1 1 4 7 7 7 8 8 8 8 6 5 4 2 2 2 2 2 3 5 7 9 13 17 20 22 24 26 29 31 32 33
20 18 16 13 11 10 8 7 7 6 4 2 3 2 6 9 9 9 10 10 8 7 6 6 5 5 4 3 2 3 4 7 11 14 18 19 21 24 26 29 30 31 33
22 22 19 17 15 15 13 11 10 9 7 6 6 5 5 10 13 13 12 12 11 9 8 8 8 8 5 3 2 3 5 10 13 15 17 19 23 25 28 28 28 30 32
24 22 21 20 20 18 16 14 12 12 9 9 9 10 10 9 13 16 15 15 14 13 12 11 10 9 7 7 6 5 7 8 13 17 20 22 24 27 28 28 29 30 32
26 24 24 22 20 19 18 16 15 14 13 11 12 14 14 13 12 16 19 18 17 16 15 14 13 13 11 10 7 9 10 10 15 17 20 24 25 27 29 30 30 31 32
28 26 24 22 20 19 20 20 17 16 15 14 14 15 17 17 16 15 20 21 21 19 18 18 16 16 12 12 12 13 12 11 13 17 19 21 25 27 28 29 30 31 30
31 28 26 24 21 21 22 22 20 19 18 16 15 16 17 19 19 18 19 23 24 23 21 20 19 17 15 15 16 15 13 14 15 15 16 22 25 27 28 28 30 29 29
32 30 29 27 26 24 23 24 24 22 20 18 17 18 17 19 20 20 19 22 25 25 25 24 23 19 19 21 20 17 17 17 20 20 17 20 23 27 27 28 29 28 28
34 31 31 31 28 27 26 26 27 23 23 21 19 19 18 19 22 22 21 22 26 28 28 27 26 23 22 24 23 19 20 21 23 26 24 22 24 26 27 27 29 27 28
36 36 34 33 31 31 30 28 27 25 24 23 22 21 21 22 24 24 23 24 25 32 32 29 27 25 26 26 24 22 23 23 26 27 28 25 26 25 26 27 28 28 27

GFSMA_500_spd_075.txt.gz
Wind_Speed
9 8 7 10 11 14 14 12 9 12 16 15 17 18 19 16 16 18 20 18 17 19 21 21 21 23 24 25 25 25 24 24 24 23 23 21 21 22 22 22 22 22 22
7 10 10 12 12 15 15 13 13 12 16 16 15 17 17 17 17 17 20 20 20 22 25 26 25 26 25 26 25 24 24 23 23 23 23 23 23 23 22 22 22 23 24
9 11 13 15 12 14 16 15 13 15 14 16 15 13 14 13 17 19 22 22 22 24 26 26 25 25 24 24 25 25 25 26 27 26 26 26 25 25 24 24 24 25 25
11 11 13 14 13 14 16 14 13 14 16 17 15 11 13 14 18 22 23 23 23 23 24 22 23 24 25 25 25 27 28 27 27 26 25 26 26 24 22 22 23 24 24
11 12 11 10 11 12 13 15 13 14 15 19 14 13 15 19 20 21 23 22 21 21 21 21 24 25 26 25 26 27 26 27 26 26 26 25 23 23 22 23 24 24 24
13 12 11 10 10 12 11 13 15 16 15 18 18 18 17 19 19 20 20 20 19 20 20 22 24 26 24 26 26 25 27 26 25 24 22 22 23 24 24 25 25 25 26
13 12 14 13 11 11 12 10 14 17 16 16 16 18 18 17 18 17 16 17 18 20 20 22 26 24 25 24 23 25 25 25 23 21 23 23 25 25 25 25 25 25 25
12 13 15 14 13 13 12 11 12 13 15 15 15 16 17 17 16 14 13 14 15 19 21 25 24 21 23 22 22 22 20 19 21 23 23 23 24 24 26 27 28 29 29
11 11 13 14 15 14 12 10 12 12 11 14 13 15 15 16 14 13 12 11 15 18 22 23 21 19 20 19 19 19 16 18 19 20 21 21 22 24 27 31 32 33 33
10 10 10 14 14 13 13 13 12 11 11 11 12 14 16 14 12 12 10 8 12 14 18 20 18 16 17 17 15 16 15 15 15 17 17 20 20 25 28 30 32 33 34
11 11 9 11 13 12 11 13 14 11 9 10 13 14 13 14 13 10 9 10 10 11 15 16 14 14 14 14 13 13 13 12 12 15 18 19 22 25 28 32 33 34 35
10 9 8 7 9 10 10 10 12 13 11 10 14 15 13 13 12 10 11 14 12 13 15 15 15 13 11 12 13 12 10 10 11 15 19 21 23 26 31 33 34 35 35
12 9 7 6 7 8 7 6 9 11 12 12 12 12 14 12 13 11 12 15 16 15 14 13 13 11 9 9 10 9 7 8 12 16 19 20 26 31 34 33 34 33 34
12 11 9 6 5 5 6 7 7 8 10 12 13 11 11 11 11 12 13 12 12 12 11 11 10 8 8 6 4 6 6 9 12 14 17 21 26 29 31 32 31 29 33
15 13 11 8 6 6 4 6 6 5 8 11 12 11 12 9 8 10 10 8 6 8 7 7 6 6 4 4 5 5 5 7 10 14 16 20 25 27 28 29 31 31 32
18 15 12 8 7 8 5 5 5 5 4 6 9 11 10 9 9 10 9 8 5 5 5 6 4 2 2 2 3 3 5 7 10 12 16 20 24 24 26 29 30 31 32
19 17 13 10 8 7 6 5 5 4 4 4 4 9 10 10 10 10 10 8 6 6 4 3 3 1 1 1 2 3 4 6 8 12 16 20 22 24 27 30 30 31 32
21 19 15 11 10 9 7 6 6 5 3 2 3 3 8 10 10 10 10 9 7 6 7 5 4 4 4 3 3 4 4 6 10 14 18 20 22 24 28 29 30 31 31
24 22 19 16 15 12 11 9 8 9 7 5 3 2 3 9 12 13 13 13 12 11 9 8 9 9 7 6 6 7 6 9 12 15 18 20 22 23 25 27 29 31 33
27 25 23 21 19 17 16 14 13 11 11 9 7 6 6 7 10 14 16 16 16 16 14 13 12 12 11 10 9 9 8 8 14 14 19 19 21 22 25 26 28 32 33
28 27 26 23 22 21 20 18 18 16 14 13 11 10 10 11 11 13 18 20 20 19 18 17 16 16 16 14 13 13 13 12 14 14 18 18 22 24 25 27 28 31 31
32 29 26 25 24 23 23 22 21 20 17 16 15 14 13 13 15 16 16 21 23 23 22 20 20 19 18 17 17 17 15 17 15 17 18 22 22 24 25 27 27 28 29
37 33 31 28 24 23 23 24 24 23 20 19 19 17 16 17 18 18 19 18 22 26 25 24 23 23 21 20 19 20 19 18 20 20 19 23 23 24 26 25 26 26 27
40 37 35 33 30 26 26 25 25 25 23 22 21 21 19 19 19 20 20 19 20 24 29 28 26 27 24 22 22 22 23 23 24 24 23 25 26 26 27 27 26 25 25
43 40 38 37 33 31 30 28 26 24 25 24 24 23 22 21 22 22 21 21 20 22 28 30 29 29 27 28 24 24 26 26 25 25 26 27 31 29 29 29 28 25 25
47 45 42 40 37 35 34 32 30 26 23 25 25 24 24 24 25 24 22 23 21 24 27 30 32 30 31 31 29 27 27 26 24 21 27 28 31 32 30 29 28 25 24